Weather History for Cozumel, Mexico

Change the Weather History Date:

Sunday, October 13, 2013

  Actual Average Record
Temperature  
Mean Temperature 76 °F -  
Max Temperature 84 °F 87 °F 91 °F (2003)
Min Temperature 68 °F 76 °F 68 °F (2013)
Cooling Degree Days 11    
Growing Degree Days 26 (Base 50)    
Moisture  
Dew Point 70 °F    
Average Humidity 84    
Maximum Humidity 100    
Minimum Humidity 66    
Precipitation  
Precipitation 0.00 in - - ()
Sea Level Pressure  
Sea Level Pressure 29.97 in    
Wind  
Wind Speed 5 mph ()    
Max Wind Speed 16 mph    
Max Gust Speed -    
Visibility 7.4 miles    
Events Rain    
Averages and records for this station are not official NWS values.
T = Trace of Precipitation, MM = Missing Value Source: Averaged Metar Reports

Daily Weather History Graph

Daily Weather History Graph

Search for Another Location

Airport:

Trip Planner

Search our weather history database for the weather conditions in past years. The results will help you decide how hot, cold, wet, or windy it might be!

Date:

Astronomy

Oct. 13, 2013 Rise Set
Actual Time 6:42 AM CDT 6:25 PM CDT
Civil Twilight 6:20 AM CDT 6:47 PM CDT
Nautical Twilight 5:54 AM CDT 7:13 PM CDT
Astronomical Twilight 5:28 AM CDT 7:38 PM CDT
Moon 2:39 PM CDT (10/13) 1:32 AM CDT (10/13)
Length of Visible Light 12h 27m
Length of Day
11h 42m
Waxing Gibbous, 69% of the Moon is Illuminated
Oct 13
Waxing Gibbous
Oct 18
Full
Oct 26
Last Quarter
Nov 3
New
Nov 9
First Quarter

Hourly Weather History & Observations

Time (CDT) Temp. Heat Index Dew Point Humidity Pressure Visibility Wind Dir Wind Speed Gust Speed Precip Events Conditions
12:48 AM 73.4 °F - 71.6 °F 94% 29.96 in 6.0 mi ENE 6.9 mph - N/A Rain Light Rain
1:41 AM 71.6 °F - 71.6 °F 100% 29.96 in 7.0 mi East 4.6 mph - N/A   Partly Cloudy
3:47 AM 71.6 °F - 71.6 °F 100% 29.97 in 7.0 mi Calm Calm - N/A   Partly Cloudy
4:44 AM 68.0 °F - 68.0 °F 100% 29.94 in 7.0 mi Calm Calm - N/A   Clear
5:46 AM 68.0 °F - 68.0 °F 100% 29.95 in 7.0 mi East 5.8 mph - N/A   Partly Cloudy
6:43 AM 69.8 °F - 69.8 °F 100% 29.96 in 7.0 mi East 3.5 mph - N/A   Scattered Clouds
7:43 AM 69.8 °F - 69.8 °F 100% 29.98 in 8.0 mi ESE 5.8 mph - N/A   Scattered Clouds
8:42 AM 69.8 °F - 69.8 °F 100% 30.00 in 8.0 mi Calm Calm - N/A   Scattered Clouds
9:46 AM 75.2 °F - 69.8 °F 83% 30.04 in 8.0 mi SE 4.6 mph - N/A   Mostly Cloudy
10:42 AM 78.8 °F - 73.4 °F 83% 30.02 in 8.0 mi East 8.1 mph - N/A   Mostly Cloudy
11:40 AM 80.6 °F 84.6 °F 71.6 °F 74% 30.01 in 8.0 mi ENE 11.5 mph - N/A   Mostly Cloudy
12:44 PM 84.2 °F 89.6 °F 71.6 °F 66% 29.98 in 8.0 mi ENE 13.8 mph - N/A   Mostly Cloudy
1:44 PM 82.4 °F 87.2 °F 71.6 °F 70% 29.96 in 8.0 mi ENE 16.1 mph - N/A   Scattered Clouds
2:49 PM 84.2 °F 89.6 °F 71.6 °F 66% 29.94 in 8.0 mi ENE 11.5 mph - N/A   Scattered Clouds
3:45 PM 82.4 °F 86.3 °F 69.8 °F 66% 29.96 in 8.0 mi East 11.5 mph - N/A   Scattered Clouds
4:41 PM 80.6 °F 83.9 °F 69.8 °F 70% 29.92 in 8.0 mi East 8.1 mph - N/A   Scattered Clouds
5:45 PM 78.8 °F - 69.8 °F 74% 29.93 in 8.0 mi East 6.9 mph - N/A   Partly Cloudy
6:51 PM 75.2 °F - 68.0 °F 78% 29.94 in 7.0 mi East 4.6 mph - N/A   Clear
7:51 PM 75.2 °F - 68.0 °F 78% 29.97 in 7.0 mi East 4.6 mph - N/A   Clear
8:43 PM 75.2 °F - 68.0 °F 78% 29.99 in 7.0 mi East 4.6 mph - N/A   Clear
9:48 PM 75.2 °F - 68.0 °F 78% 30.02 in 7.0 mi ENE 3.5 mph - N/A   Clear
10:49 PM 73.4 °F - 68.0 °F 83% 29.98 in 7.0 mi Calm Calm - N/A   Clear
11:41 PM 71.6 °F - 68.0 °F 88% 29.98 in 7.0 mi Calm Calm - N/A   Clear